Location: Altenst�hlen
(53.5567°N, 8.9425°E)
Time: 23:53:54
(UTC+00:00)

Cosmos 1356 - Pass Details

Date: 23 October 2019
Orbit: 447 x 448 km, 81.1° (Epoch: 21 November)

Event Time Altitude Azimuth Distance (km) Brightness Sun altitude
Rises 17:27:50 0° 204° (SSW) 2,441 7.5 -12.1°
Reaches altitude 10° 17:29:55 10° 209° (SSW) 1,575 6.6 -12.4°
Maximum altitude 17:33:18 53° 287° (WNW) 564 4.3 -12.9°
Drops below altitude 10° 17:36:42 10° 5° (N) 1,590 6.1 -13.4°
Sets 17:38:49 0° 11° (N) 2,468 7.0 -13.7°
